Regional Weather Roundup
Issued by NWS

Home | Current Version | Previous Version | Text Only | Print | Product List | Glossary On
Versions: 1 2 3 4 5 6 7 8 9 10 11 12 13 14 15 16 17 18 19 20 21 22 23 24 25 26 27 28 29 30 31 32 33 34 35 36 37 38 39 40 41 42 43 44 45 46 47 48 49 50
000
ASUS45 KREV 250310
RWRNV
NEVADA REGIONAL WEATHER ROUNDUP
NATIONAL WEATHER SERVICE RENO NV
700 PM PST SAT JAN 24 2015

NOTE: "FAIR" INDICATES FEW OR NO CLOUDS BELOW 12,000 FEET WITH NO
SIGNIFICANT WEATHER AND/OR OBSTRUCTIONS TO VISIBILITY.

NVZ001-003-004-250400-
WESTERN NEVADA

CITY           SKY/WX    TMP DP  RH WIND       PRES   REMARKS
RENO           PTCLDY    48  20  32 VRB3      30.42R
CARSON CITY    FAIR      43  16  33 CALM      30.44R
SLIDE MTN        N/A     36  21  55 E43         N/A
PYRAMID LAKE     N/A     46 N/A N/A SW6         N/A
FALLON         CLEAR     39  17  41 NE5       30.43R
LOVELOCK       CLEAR     37  20  50 CALM      30.43R
HAWTHORNE      CLEAR     39  19  45 S7        30.43R
$$

NVZ002-CAZ072-073-250400-
NORTHERN AND CENTRAL SIERRA

CITY           SKY/WX    TMP DP  RH WIND       PRES   REMARKS
S. LAKE TAHOE  CLEAR     50  17  27 N8        30.39R
TRUCKEE        CLEAR     34  21  60 CALM      30.40R
SQUAW VLY 8000   N/A     41  21  45 CALM        N/A
SUSANVILLE     CLEAR     37  28  70 W5        30.43
BLUE CANYON    CLEAR     55  20  25 E14G30    30.29R
MAMMOTH LAKES  FAIR      34   1  25 N5        30.45R
BRIDGEPORT     FAIR      36  12  37 VRB3      30.42R
$$

NVZ030-031-036-250400-
NORTHERN NEVADA

CITY           SKY/WX    TMP DP  RH WIND       PRES   REMARKS
ELKO           CLEAR     36  28  73 CALM      30.43S
WINNEMUCCA     CLEAR     32  24  72 CALM      30.43S
WENDOVER       MOCLDY    34  25  69 CALM      30.46S
$$

NVZ035-037-250400-
CENTRAL NEVADA

CITY           SKY/WX    TMP DP  RH WIND       PRES   REMARKS
ELY            CLEAR     36  21  54 NW6       30.43R
EUREKA           N/A     31  24  75 S5        30.44S
$$

NVZ013-014-250400-
SOUTH CENTRAL NEVADA

CITY           SKY/WX    TMP DP  RH WIND       PRES   REMARKS
TONOPAH        CLEAR     47  19  33 N9        30.39R
$$

NVZ017-020-022-250400-
SOUTHERN NEVADA

CITY           SKY/WX    TMP DP  RH WIND       PRES   REMARKS
LAS VEGAS      CLEAR     59  21  23 SW9       30.19R
N. LAS VEGAS   CLEAR     58  15  18 N7        30.22R
NELLIS AFB     CLEAR     53  24  32 E10       30.22R
HENDERSON      CLEAR     54  24  31 NW3       30.25R
MERCURY        CLEAR     55  11  17 NE8       30.26R
$$


USA.gov is the U.S. government's official web portal to all federal, state and local government web resources and services.